Wind_Speed
15 16 16 15 14 14 14 14 14 14 13 13 12 11 11 11 11 11 10 10 10 10 10 9 9 9 9 9 9 8 8 8 8 8 8 7 7 8 8 8 8 7 7 7
16 17 16 15 15 15 15 14 15 15 14 13 13 12 11 11 11 11 10 10 10 10 10 9 9 9 9 9 9 8 9 8 8 9 9 8 8 9 9 8 8 8 8 8
17 17 17 16 16 15 15 15 15 15 14 14 14 13 12 12 12 12 12 12 11 10 10 10 10 10 10 9 9 9 9 9 9 9 10 9 9 10 9 9 9 8 8 8
18 18 17 16 16 16 16 16 16 16 15 15 14 13 14 13 13 13 13 13 12 12 12 11 11 12 11 11 11 10 10 10 10 10 9 10 10 11 11 11 10 10 10 10
18 18 18 17 17 16 16 16 16 17 17 17 16 15 15 15 14 13 14 14 14 13 13 13 13 13 13 12 12 12 11 11 11 11 11 11 10 11 11 12 12 12 12 12
19 19 19 19 18 18 17 17 18 18 18 18 17 16 15 16 15 15 15 15 14 14 14 14 14 14 13 13 13 13 13 13 12 12 12 12 12 11 12 12 13 13 13 13
21 21 20 20 20 20 19 17 17 17 18 18 18 18 17 16 15 15 16 15 15 15 15 15 16 15 15 15 14 14 14 14 14 14 14 14 13 13 14 14 14 15 14 14
22 22 22 21 21 20 19 19 18 17 18 18 20 19 17 16 16 15 16 16 16 16 16 16 17 16 16 15 15 14 15 15 15 15 16 16 15 15 15 16 16 16 16 16
22 22 22 22 21 21 20 20 18 18 18 18 19 19 18 17 16 17 16 16 17 17 17 17 17 17 17 16 15 15 16 17 17 17 17 17 17 17 17 17 18 18 18 17
23 23 23 22 22 22 21 20 20 19 19 18 18 19 18 17 17 17 17 17 17 17 17 17 17 17 18 17 17 16 17 17 17 17 18 18 18 18 18 18 19 19 19 19
24 23 23 23 23 22 22 22 21 20 20 19 19 18 18 18 18 18 18 17 17 17 17 17 17 18 18 18 18 18 18 17 17 18 18 18 19 19 20 20 20 20 21 21
24 24 24 24 23 22 22 22 22 22 22 22 20 20 19 18 17 17 18 18 17 17 17 17 17 18 18 18 17 17 17 17 18 19 19 19 19 20 21 21 21 21 22 22
25 25 25 24 24 24 24 23 23 23 23 23 22 21 19 17 17 17 17 18 19 18 17 18 17 18 18 19 18 17 17 18 18 18 18 19 20 20 20 20 21 21 21 23
26 26 26 25 24 25 25 24 24 24 23 24 23 21 20 19 18 18 18 19 19 18 18 18 18 19 19 20 20 19 19 19 19 19 20 20 20 20 20 21 21 22 22 23
27 27 26 25 26 26 25 25 25 25 24 24 23 22 22 20 20 20 20 20 20 20 20 20 20 20 20 21 21 21 20 20 20 20 20 20 20 20 21 21 22 22 22 22
27 27 27 26 26 26 26 26 26 26 26 25 24 24 24 22 21 21 21 21 22 21 21 21 21 21 21 21 22 22 21 20 20 20 21 21 21 21 22 22 22 22 22 22
26 27 28 27 27 27 28 27 27 27 26 26 25 25 25 25 24 24 23 23 23 22 22 22 22 22 22 22 22 22 22 21 21 21 22 22 21 22 22 22 22 22 22 23
25 26 26 26 27 28 28 27 27 27 27 27 27 27 27 26 26 26 25 24 24 23 23 23 23 23 23 23 23 22 22 22 23 23 23 22 22 22 23 23 23 23 24 24
24 25 26 26 27 27 28 27 27 27 28 28 28 28 28 28 27 27 27 26 25 25 24 25 25 24 24 24 23 23 23 23 23 23 23 23 24 24 25 25 25 26 25 25
25 26 26 26 26 26 28 28 27 28 29 28 28 28 28 28 28 27 27 27 26 26 25 25 25 25 25 24 24 24 24 24 24 24 24 25 25 26 26 26 27 28 28 28
25 25 26 26 27 27 28 27 27 28 28 27 27 28 28 28 28 28 28 28 27 27 26 26 27 26 26 26 25 25 25 25 25 25 25 26 26 26 27 28 29 29 29 30
25 25 25 26 27 28 28 28 28 28 28 27 27 27 28 28 28 28 29 29 28 28 28 28 28 28 28 28 27 26 26 27 26 26 26 26 27 27 28 28 29 29 30 31
25 25 25 25 26 28 29 29 29 29 28 27 27 28 29 28 29 30 30 29 29 29 29 29 29 29 29 29 28 28 28 28 27 28 27 27 28 28 29 29 29 30 31 31
25 27 27 27 27 28 29 29 30 30 30 29 28 28 29 29 29 30 30 29 30 29 29 30 30 30 29 29 30 30 30 30 29 29 29 29 30 30 30 30 30 30 31 31
25 27 28 29 29 28 28 29 30 29 29 29 29 29 30 30 30 30 30 30 30 30 30 30 30 30 30 30 31 31 32 32 31 31 31 31 31 31 30 30 30 31 31 31
25 27 28 29 29 28 27 28 28 29 30 30 30 30 30 31 31 31 30 30 30 30 30 30 31 30 30 30 32 32 33 33 33 32 32 32 31 31 31 31 31 31 31 32
Wind_Direction
231 232 233 234 232 232 234 236 238 242 245 249 250 249 251 252 254 257 256 255 255 255 258 262 267 273 278 282 282 282 283 279 271 264 266 271 269 270 273 267 273 268 265 267
230 233 235 236 235 235 235 236 240 243 247 249 250 250 251 255 256 254 251 248 250 252 260 264 269 274 279 281 280 281 283 279 272 265 265 270 272 271 273 269 272 269 267 268
233 236 236 234 234 236 237 237 241 246 250 250 249 253 254 255 258 255 251 250 252 256 260 266 270 272 276 278 279 279 282 281 276 268 266 269 271 274 271 268 270 270 268 266
234 234 233 233 234 234 237 238 242 247 249 249 249 251 255 254 254 252 253 254 256 260 260 264 270 272 276 277 276 276 278 278 274 270 271 270 271 274 270 269 269 272 273 273
234 234 232 233 234 234 236 240 243 247 248 248 250 250 255 254 251 250 249 251 257 261 262 264 269 270 270 272 275 276 276 275 273 272 271 271 274 275 273 272 270 272 276 277
234 234 233 233 234 235 237 241 244 246 247 248 250 252 255 256 253 252 250 252 256 260 262 263 268 269 268 270 273 274 274 271 270 270 269 270 272 275 275 274 273 271 276 275
236 235 233 232 234 236 237 238 242 245 246 248 252 253 254 257 258 258 256 255 256 259 262 265 268 268 269 272 273 272 271 270 268 267 265 267 271 273 274 275 274 276 277 275
238 237 235 234 235 239 240 238 239 242 247 252 257 256 258 258 260 261 259 259 258 260 263 266 266 268 269 271 274 272 272 270 269 269 267 267 270 274 275 277 277 278 278 276
235 238 238 237 236 236 238 238 241 247 250 252 257 260 260 259 260 262 262 261 261 262 264 266 265 265 265 268 273 273 271 270 270 271 270 270 271 273 275 277 278 279 279 279
236 238 238 236 236 235 236 240 241 242 248 252 258 260 262 262 262 263 263 262 261 262 263 265 265 264 265 268 270 271 270 269 271 272 273 273 271 273 275 277 278 277 278 278
234 236 237 236 237 238 239 239 241 244 249 253 257 263 263 263 264 263 261 258 258 260 263 265 264 262 263 266 268 269 271 272 272 272 273 272 271 273 276 278 277 276 274 276
234 234 236 238 239 239 240 241 244 247 251 255 259 265 265 264 263 260 256 256 257 260 261 264 263 260 262 265 268 269 270 272 272 273 275 274 274 276 277 276 276 275 274 273
235 236 237 240 241 240 240 241 243 247 252 256 258 264 264 261 259 258 255 256 257 258 259 262 264 266 265 266 268 269 271 273 275 275 274 274 275 276 277 277 277 277 276 272
236 237 237 239 242 242 241 242 244 246 249 253 256 260 262 261 259 259 259 258 258 259 260 261 263 267 267 265 266 269 273 274 275 276 274 275 277 278 280 280 279 278 276 274
237 238 238 237 239 241 242 243 244 245 247 251 255 258 259 258 259 260 260 260 260 261 261 260 262 265 267 265 266 268 272 274 274 275 275 276 277 278 279 280 281 279 277 275
239 239 239 239 241 243 244 245 245 246 248 251 254 257 257 257 258 258 259 259 260 262 263 263 264 265 265 264 265 268 270 272 274 275 276 276 275 276 278 278 279 279 278 276
241 240 240 242 243 246 247 246 247 248 249 252 255 257 259 258 258 259 259 259 260 262 263 264 265 266 265 266 266 268 269 271 274 275 275 277 279 279 280 280 281 279 278 277
241 241 241 242 244 247 249 250 250 250 249 252 255 257 259 259 257 258 259 260 260 261 262 263 265 265 264 265 267 267 268 271 273 275 276 277 280 281 282 282 282 283 280 279
240 240 241 243 247 251 251 251 252 252 252 253 255 257 259 259 257 256 257 259 260 262 263 263 264 264 264 266 267 266 267 270 273 275 276 277 279 280 281 281 283 283 281 281
239 239 242 244 246 250 254 253 254 255 257 256 255 256 258 258 257 257 258 259 260 261 264 264 264 263 263 265 266 265 265 267 271 273 275 277 279 280 281 282 284 284 282 281
238 239 241 245 247 251 253 254 253 255 257 256 256 256 256 257 258 257 258 259 260 261 264 264 264 262 263 264 265 266 266 268 271 273 275 278 280 281 282 283 284 285 283 281
240 243 244 246 248 251 254 255 254 256 257 256 254 255 257 257 256 256 257 259 260 261 263 264 264 263 262 263 264 265 266 268 271 275 276 277 279 281 283 284 284 285 285 284
241 242 245 248 251 253 255 257 257 257 258 257 256 255 256 256 256 256 258 259 261 263 264 264 265 264 262 262 263 264 266 268 271 273 275 276 279 282 283 285 286 287 289 287
245 245 247 250 252 254 257 258 259 260 258 258 258 258 257 256 256 258 259 261 261 262 263 264 265 264 262 261 261 262 265 267 270 272 275 278 280 282 284 286 288 290 290 288
250 250 249 251 252 255 258 260 261 261 259 259 258 258 258 258 258 260 260 260 261 261 261 262 262 262 262 261 260 261 264 266 269 272 275 278 280 281 283 284 287 290 291 289
255 253 252 253 253 256 258 260 260 259 258 259 260 259 259 259 261 261 260 260 259 260 260 260 261 262 262 260 260 262 264 266 268 271 275 277 279 280 282 284 286 288 289 289
Height
5866 5869 5870 5873 5875 5877 5878 5880 5881 5882 5882 5883 5884 5885 5885 5885 5885 5886 5886 5886 5885 5885 5885 5885 5884 5884 5883 5882 5882 5881 5880 5879 5879 5879 5879 5879 5878 5878 5877 5877 5876 5876 5875 5875
5864 5865 5868 5869 5871 5873 5874 5876 5878 5879 5879 5880 5881 5882 5882 5882 5882 5883 5883 5883 5883 5883 5883 5883 5882 5882 5881 5880 5880 5879 5878 5877 5877 5877 5877 5877 5876 5876 5875 5875 5874 5874 5874 5873
5860 5863 5864 5865 5867 5869 5871 5873 5874 5875 5876 5877 5878 5879 5879 5880 5879 5880 5880 5880 5880 5880 5881 5880 5880 5879 5879 5878 5878 5877 5876 5875 5875 5875 5875 5874 5874 5874 5873 5873 5873 5872 5872 5871
5855 5857 5859 5861 5863 5865 5867 5869 5870 5871 5873 5874 5876 5877 5877 5877 5876 5877 5877 5877 5878 5878 5878 5878 5877 5877 5877 5876 5875 5875 5874 5873 5873 5872 5872 5872 5871 5871 5871 5870 5870 5870 5870 5869
5851 5853 5855 5857 5860 5861 5863 5865 5866 5867 5869 5870 5871 5873 5874 5873 5873 5874 5874 5874 5875 5875 5875 5875 5875 5874 5874 5873 5873 5872 5871 5871 5870 5870 5869 5869 5869 5868 5868 5868 5867 5867 5867 5867
5847 5849 5851 5853 5855 5857 5859 5861 5862 5863 5865 5866 5867 5869 5870 5869 5870 5870 5871 5871 5871 5872 5872 5872 5871 5871 5871 5870 5870 5869 5869 5868 5868 5867 5867 5866 5866 5865 5865 5864 5864 5864 5863 5863
5842 5844 5846 5849 5850 5852 5854 5857 5859 5860 5861 5862 5863 5863 5865 5865 5866 5866 5867 5867 5867 5868 5868 5868 5868 5867 5867 5867 5866 5866 5865 5865 5864 5864 5864 5863 5863 5862 5862 5861 5861 5860 5860 5860
5838 5840 5842 5844 5846 5848 5850 5853 5856 5858 5859 5859 5857 5858 5861 5861 5861 5861 5862 5863 5863 5863 5863 5863 5863 5863 5863 5863 5863 5862 5862 5861 5861 5860 5860 5860 5859 5859 5858 5858 5857 5856 5856 5856
5833 5836 5837 5839 5841 5844 5845 5847 5851 5853 5853 5854 5854 5854 5855 5856 5857 5857 5857 5858 5858 5858 5859 5858 5858 5858 5858 5858 5858 5858 5857 5857 5857 5856 5856 5856 5855 5855 5854 5853 5853 5852 5851 5850
5827 5830 5832 5834 5836 5838 5841 5843 5845 5847 5848 5849 5851 5850 5852 5851 5852 5852 5852 5852 5853 5853 5853 5853 5853 5853 5853 5853 5853 5853 5853 5852 5852 5852 5851 5851 5850 5850 5849 5849 5848 5847 5846 5846
5821 5824 5827 5829 5831 5833 5835 5837 5839 5841 5843 5845 5846 5849 5846 5847 5847 5847 5847 5848 5848 5848 5848 5848 5848 5848 5848 5848 5848 5848 5848 5848 5847 5847 5846 5846 5845 5845 5844 5843 5843 5842 5841 5841
5815 5818 5821 5823 5826 5827 5830 5832 5834 5836 5837 5839 5841 5845 5841 5841 5841 5841 5842 5843 5843 5843 5843 5844 5843 5843 5843 5843 5843 5843 5843 5843 5842 5841 5841 5840 5840 5839 5839 5838 5837 5836 5835 5835
5809 5812 5815 5817 5821 5822 5823 5826 5828 5830 5832 5833 5835 5839 5836 5836 5836 5836 5837 5837 5838 5838 5839 5839 5839 5839 5839 5839 5839 5838 5838 5838 5837 5836 5835 5835 5834 5834 5833 5832 5831 5830 5829 5829
5802 5805 5809 5813 5815 5816 5818 5820 5822 5824 5825 5827 5829 5831 5830 5830 5831 5831 5832 5832 5833 5833 5833 5834 5834 5834 5833 5834 5834 5834 5833 5832 5832 5831 5830 5829 5829 5828 5827 5826 5825 5824 5823 5822
5795 5799 5801 5804 5806 5809 5811 5813 5815 5817 5819 5821 5823 5823 5824 5825 5825 5826 5826 5827 5827 5828 5828 5828 5828 5828 5828 5828 5828 5828 5828 5827 5826 5826 5825 5824 5823 5822 5821 5821 5819 5818 5817 5816
5788 5792 5795 5797 5799 5802 5804 5806 5808 5810 5812 5813 5815 5816 5817 5818 5818 5819 5820 5821 5821 5822 5822 5822 5822 5822 5822 5822 5822 5822 5822 5822 5821 5820 5820 5819 5818 5817 5816 5815 5813 5812 5811 5810
5782 5785 5788 5791 5793 5794 5797 5800 5802 5803 5805 5807 5808 5810 5809 5811 5811 5812 5813 5814 5815 5815 5816 5816 5816 5816 5816 5816 5816 5816 5816 5816 5815 5815 5814 5813 5812 5811 5810 5809 5807 5806 5805 5804
5776 5778 5781 5784 5786 5787 5792 5792 5794 5795 5797 5799 5800 5801 5802 5803 5804 5805 5806 5807 5808 5809 5809 5809 5810 5810 5810 5810 5809 5809 5809 5809 5809 5809 5808 5807 5806 5805 5804 5803 5801 5800 5798 5797
5769 5772 5774 5777 5779 5781 5783 5785 5786 5787 5789 5791 5792 5793 5793 5794 5795 5797 5798 5799 5801 5802 5802 5802 5802 5803 5803 5803 5802 5803 5803 5803 5802 5802 5801 5801 5800 5798 5797 5796 5794 5793 5791 5790
5762 5765 5768 5769 5772 5774 5776 5777 5778 5780 5781 5783 5783 5784 5785 5786 5787 5789 5790 5791 5793 5794 5794 5795 5795 5795 5795 5795 5795 5795 5796 5796 5795 5795 5794 5794 5792 5791 5790 5788 5787 5785 5784 5782
5755 5757 5760 5762 5764 5766 5767 5768 5771 5773 5774 5774 5775 5776 5777 5778 5780 5782 5782 5783 5785 5786 5786 5787 5787 5787 5788 5788 5788 5788 5788 5788 5788 5787 5787 5786 5785 5784 5782 5781 5779 5777 5775 5774
5749 5751 5753 5755 5757 5761 5759 5761 5763 5764 5765 5766 5767 5768 5769 5770 5772 5773 5774 5775 5776 5777 5778 5779 5779 5779 5779 5780 5780 5780 5781 5781 5780 5780 5779 5778 5777 5776 5774 5773 5770 5768 5767 5765
5742 5745 5746 5748 5751 5750 5751 5752 5754 5755 5757 5758 5759 5760 5761 5762 5763 5764 5765 5766 5768 5769 5770 5770 5770 5771 5771 5771 5772 5772 5773 5773 5772 5772 5771 5770 5769 5767 5766 5764 5762 5760 5758 5756
5735 5736 5738 5740 5741 5742 5743 5744 5745 5747 5748 5749 5750 5751 5752 5753 5754 5756 5757 5757 5759 5760 5761 5761 5762 5762 5762 5762 5763 5764 5764 5764 5764 5763 5762 5761 5760 5759 5757 5755 5753 5751 5749 5747
5727 5729 5730 5731 5733 5734 5735 5736 5737 5738 5739 5740 5741 5742 5743 5744 5746 5747 5748 5749 5750 5751 5751 5752 5752 5753 5753 5753 5754 5755 5755 5755 5754 5754 5753 5752 5751 5750 5748 5747 5745 5743 5741 5739
5719 5721 5722 5723 5724 5726 5727 5728 5729 5730 5731 5732 5732 5733 5734 5735 5737 5737 5738 5739 5740 5741 5742 5743 5743 5744 5744 5744 5745 5745 5745 5745 5745 5744 5744 5743 5742 5740 5739 5737 5736 5734 5732 5730